EW9596 Weather Reports


Display with metric or nautical units.
time (UTC)temp
F
wind
direction
speed
MPH
gust
MPH
rain 1hr
in
rain 24hr
in
rain mn
in
humidity
%
barometer
mb
20260510041022 52 225 0.0 4.0 0.00 0.22 0.00 89 1011.3
20260510040520 52 225 0.0 6.0 0.00 0.22 0.00 89 1011.3
20260510040023 51 217 1.0 8.0 0.00 0.22 0.00 89 1011.1
20260510035519 51 248 3.0 9.0 0.00 0.22 0.22 88 1011.1
20260510035018 51 221 1.0 4.0 0.00 0.22 0.22 88 1011.1
20260510034519 51 244 0.0 0.0 0.00 0.22 0.22 88 1010.8
20260510034019 51 244 0.0 0.0 0.00 0.22 0.22 87 1010.4
20260510033519 51 246 0.0 0.0 0.00 0.22 0.22 87 1009.9
20260510033018 51 243 0.0 0.0 0.00 0.22 0.22 87 1009.9
20260510032518 51 243 0.0 0.0 0.00 0.22 0.22 87 1010.0
20260510032018 51 243 0.0 0.0 0.00 0.22 0.22 87 1009.9
20260510031526 51 243 0.0 0.0 0.00 0.22 0.22 87 1009.8
20260510031018 51 243 0.0 0.0 0.00 0.22 0.22 87 1010.0
20260510030517 51 243 0.0 0.0 0.00 0.22 0.22 86 1010.0
20260510030017 51 243 0.0 0.0 0.00 0.22 0.22 86 1010.1
20260510025517 51 243 0.0 0.0 0.00 0.22 0.22 86 1009.9
20260510025018 51 243 0.0 0.0 0.00 0.22 0.22 86 1009.8
20260510024518 51 243 0.0 0.0 0.00 0.22 0.22 85 1009.7
20260510024016 51 243 0.0 0.0 0.00 0.22 0.22 85 1009.5
20260510023517 51 243 0.0 0.0 0.00 0.22 0.22 85 1009.3
20260510023017 51 243 0.0 0.0 0.00 0.22 0.22 85 1009.2
20260510022521 51 243 0.0 0.0 0.00 0.22 0.22 85 1009.3
20260510022016 52 243 0.0 0.0 0.00 0.22 0.22 84 1009.1
20260510021525 52 243 0.0 0.0 0.00 0.22 0.22 84 1009.2
20260510021016 52 243 0.0 0.0 0.00 0.22 0.22 84 1009.3
20260510020515 52 243 0.0 0.0 0.00 0.22 0.22 84 1009.2
20260510020015 52 243 0.0 0.0 0.00 0.22 0.22 84 1009.3
20260510015516 53 243 0.0 0.0 0.00 0.22 0.22 84 1009.2
20260510015015 53 243 0.0 0.0 0.00 0.22 0.22 84 1009.2
20260510014516 53 243 0.0 0.0 0.00 0.22 0.22 84 1009.2
20260510014016 54 243 0.0 0.0 0.00 0.22 0.22 84 1009.1
20260510013519 54 243 0.0 0.0 0.00 0.22 0.22 84 1009.0
20260510013014 54 243 0.0 0.0 0.00 0.22 0.22 84 1008.9
20260510012514 54 243 0.0 0.0 0.00 0.22 0.22 84 1008.9
20260510012015 54 264 0.0 0.0 0.00 0.22 0.22 84 1009.0
20260510011514 54 264 0.0 0.0 0.00 0.22 0.22 84 1009.1
20260510011013 54 264 0.0 5.0 0.00 0.22 0.22 84 1008.8
20260510010513 54 200 2.0 5.0 0.00 0.22 0.22 84 1008.8
20260510010013 55 166 0.0 6.0 0.00 0.22 0.22 84 1008.7
20260510005512 55 137 1.0 6.0 0.00 0.22 0.22 84 1008.6
20260510005013 55 193 1.0 6.0 0.00 0.22 0.22 83 1008.6
20260510004513 55 194 2.0 6.0 0.00 0.22 0.22 83 1008.6
20260510004016 55 132 0.0 5.0 0.00 0.22 0.22 83 1008.5
20260510003512 55 170 1.0 8.0 0.00 0.22 0.22 82 1008.4
20260510003012 56 187 0.0 8.0 0.00 0.22 0.22 82 1008.3
20260510002511 56 171 0.0 0.0 0.00 0.22 0.22 82 1008.2
20260510002012 56 268 0.0 0.0 0.00 0.22 0.22 82 1008.2
20260510001520 57 140 0.0 0.0 0.00 0.22 0.22 81 1008.3
20260510001011 57 183 0.0 0.0 0.00 0.22 0.22 81 1008.3
20260510000512 57 198 0.0 0.0 0.00 0.22 0.22 81 1008.3
20260510000011 57 198 0.0 0.0 0.00 0.22 0.22 81 1008.3
20260509235510 58 244 0.0 0.0 0.00 0.22 0.22 82 1008.2
20260509235013 58 270 0.0 0.0 0.00 0.22 0.22 82 1008.2
20260509234513 58 11 0.0 0.0 0.00 0.22 0.22 82 1008.0
20260509234011 58 10 0.0 0.0 0.00 0.22 0.22 82 1008.0
20260509233511 58 294 0.0 0.0 0.00 0.22 0.22 82 1008.0
20260509233010 58 294 0.0 0.0 0.00 0.22 0.22 82 1008.0
20260509232512 58 294 0.0 0.0 0.00 0.22 0.22 83 1007.8
20260509232010 58 244 0.0 0.0 0.00 0.22 0.22 83 1007.8
20260509231510 58 164 0.0 0.0 0.00 0.22 0.22 83 1007.6
20260509231008 58 166 0.0 0.0 0.00 0.22 0.22 83 1007.6
20260509230507 58 310 0.0 0.0 0.00 0.22 0.22 83 1007.7
20260509230007 58 67 0.0 0.0 0.00 0.22 0.22 83 1007.7
20260509225507 57 254 0.0 2.0 0.00 0.22 0.22 83 1007.7
20260509225006 57 149 0.0 3.0 0.00 0.22 0.22 83 1007.7
20260509224506 57 137 0.0 4.0 0.00 0.22 0.22 83 1007.8
20260509224006 57 184 0.0 6.0 0.00 0.22 0.22 83 1008.0
20260509223506 57 221 0.0 6.0 0.00 0.22 0.22 83 1008.1
20260509223006 57 224 0.0 9.0 0.00 0.22 0.22 83 1008.1
20260509222505 57 224 1.0 9.0 0.00 0.22 0.22 83 1008.0
20260509222005 57 239 1.0 8.0 0.00 0.22 0.22 84 1008.0
20260509221505 57 198 2.0 9.0 0.00 0.22 0.22 84 1008.0
20260509221105 57 124 1.0 9.0 0.00 0.22 0.22 84 1007.9
20260509220504 57 214 2.0 10.0 0.00 0.22 0.22 84 1007.9
20260509220005 57 169 1.0 10.0 0.00 0.22 0.22 85 1008.0
20260509215504 58 225 1.0 5.0 0.00 0.22 0.22 85 1007.9
20260509215003 57 225 1.0 5.0 0.00 0.22 0.22 86 1008.0
20260509214503 57 223 2.0 5.0 0.00 0.22 0.22 86 1008.0
20260509214003 57 290 0.0 6.0 0.00 0.22 0.22 87 1008.0
20260509213502 57 255 2.0 5.0 0.00 0.22 0.22 87 1008.0
20260509213002 57 309 0.0 8.0 0.00 0.22 0.22 88 1008.0
20260509212501 57 69 1.0 8.0 0.00 0.22 0.22 88 1008.1
20260509212100 57 155 0.0 4.0 0.00 0.22 0.22 89 1008.1
20260509211605 57 275 1.0 5.0 0.00 0.22 0.22 89 1008.2
20260509211057 57 88 2.0 9.0 0.00 0.22 0.22 89 1008.2
20260509210557 56 273 2.0 9.0 0.00 0.22 0.22 89 1008.3
20260509210101 56 229 1.0 6.0 0.00 0.22 0.22 89 1008.4
20260509205554 56 286 0.0 2.0 0.00 0.22 0.22 89 1008.4
20260509205053 56 260 0.0 10.0 0.00 0.22 0.22 89 1008.5
20260509204600 55 252 4.0 10.0 0.00 0.22 0.22 89 1008.6
20260509204053 55 288 1.0 4.0 0.00 0.22 0.22 89 1008.6
20260509203553 55 124 1.0 5.0 0.00 0.22 0.22 89 1008.6
20260509203051 55 128 1.0 6.0 0.00 0.22 0.22 89 1008.8
20260509202555 55 284 2.0 6.0 0.00 0.22 0.22 89 1008.7
20260509202051 55 286 0.0 5.0 0.00 0.22 0.22 89 1008.8
20260509201550 55 262 1.0 5.0 0.00 0.22 0.22 89 1008.8
20260509201049 55 273 0.0 3.0 0.00 0.22 0.22 89 1008.8
20260509200549 55 313 0.0 4.0 0.00 0.22 0.22 89 1008.8
20260509200048 55 325 2.0 4.0 0.00 0.22 0.22 89 1008.9
20260509195548 54 311 0.0 3.0 0.00 0.22 0.22 89 1009.0
20260509195051 54 277 1.0 5.0 0.00 0.22 0.22 89 1009.0
20260509194546 54 257 1.0 5.0 0.00 0.22 0.22 89 1009.1
20260509194047 54 292 0.0 4.0 0.00 0.22 0.22 89 1009.2
20260509193545 54 293 0.0 3.0 0.01 0.22 0.22 89 1009.2
20260509193046 54 273 0.0 5.0 0.02 0.22 0.22 89 1009.2
20260509192548 54 273 1.0 5.0 0.02 0.22 0.22 89 1009.2
20260509192044 54 249 0.0 0.0 0.02 0.22 0.22 89 1009.3
20260509191551 54 268 0.0 0.0 0.02 0.22 0.22 89 1009.4
20260509191048 54 268 0.0 0.0 0.02 0.22 0.22 89 1009.4
20260509190542 54 268 0.0 0.0 0.02 0.22 0.22 89 1009.5
20260509190044 54 268 0.0 0.0 0.02 0.22 0.22 89 1009.5
20260509185543 54 267 0.0 0.0 0.02 0.22 0.22 89 1009.5
20260509185045 54 267 0.0 4.0 0.02 0.22 0.22 89 1009.5
20260509184543 54 292 0.0 4.0 0.02 0.22 0.22 89 1009.5
20260509184042 54 239 0.0 3.0 0.02 0.22 0.22 89 1009.5
20260509183543 54 290 0.0 4.0 0.01 0.21 0.21 89 1009.5
20260509183043 54 291 1.0 4.0 0.00 0.20 0.20 89 1009.4
20260509182542 54 306 0.0 3.0 0.00 0.20 0.20 89 1009.5
20260509182042 54 304 0.0 3.0 0.00 0.20 0.20 89 1009.5
20260509181543 54 322 0.0 3.0 0.00 0.20 0.20 89 1009.4
20260509181041 54 37 0.0 3.0 0.00 0.20 0.20 89 1009.4
20260509180543 54 277 0.0 3.0 0.00 0.20 0.20 89 1009.4
20260509180040 54 281 0.0 4.0 0.00 0.20 0.20 89 1009.4
20260509175540 54 286 0.0 6.0 0.00 0.20 0.20 89 1009.4
20260509175044 54 244 1.0 6.0 0.00 0.20 0.20 89 1009.4
20260509174551 54 223 2.0 6.0 0.00 0.20 0.20 89 1009.3
20260509174039 54 246 0.0 8.0 0.00 0.20 0.20 90 1009.3
20260509173540 54 150 2.0 8.0 0.00 0.20 0.20 90 1009.4
20260509173044 54 308 0.0 5.0 0.00 0.20 0.20 90 1009.4
20260509172541 53 188 1.0 6.0 0.00 0.20 0.20 90 1009.3
20260509172038 53 281 1.0 6.0 0.00 0.20 0.20 90 1009.3
20260509171544 53 158 2.0 9.0 0.00 0.20 0.20 90 1009.4
20260509171036 53 113 3.0 7.0 0.00 0.20 0.20 90 1009.3
20260509170536 53 236 0.0 5.0 0.00 0.20 0.20 90 1009.3
20260509170040 53 136 2.0 5.0 0.00 0.20 0.20 90 1009.4
20260509165535 53 206 0.0 0.0 0.00 0.20 0.20 90 1009.4
20260509165035 53 209 0.0 0.0 0.00 0.20 0.20 90 1009.4
20260509164536 53 207 0.0 2.0 0.00 0.20 0.20 90 1009.5
20260509164034 53 192 0.0 4.0 0.00 0.20 0.20 90 1009.5
20260509163534 53 287 0.0 4.0 0.00 0.20 0.20 90 1009.6
20260509163034 53 263 2.0 4.0 0.00 0.20 0.20 91 1009.6
20260509162533 53 126 1.0 4.0 0.00 0.20 0.20 91 1009.6
20260509162036 53 346 0.0 3.0 0.00 0.20 0.20 91 1009.7
20260509161533 53 254 0.0 0.0 0.00 0.20 0.20 91 1009.7
20260509161033 53 241 0.0 0.0 0.00 0.20 0.20 91 1009.8
20260509160530 53 239 0.0 0.0 0.00 0.20 0.20 91 1009.9
20260509160030 53 237 0.0 0.0 0.00 0.20 0.20 91 1009.9
20260509155529 53 237 0.0 0.0 0.00 0.20 0.20 91 1010.0
20260509155029 52 237 0.0 0.0 0.00 0.20 0.20 91 1010.0
20260509154533 52 237 0.0 2.0 0.01 0.20 0.20 91 1009.9
20260509154030 52 237 0.0 3.0 0.01 0.20 0.20 91 1010.0
20260509153528 52 236 0.0 5.0 0.01 0.20 0.20 91 1010.1
20260509153032 52 342 0.0 5.0 0.01 0.20 0.20 91 1010.0
20260509152527 52 355 0.0 0.0 0.01 0.20 0.20 91 1010.0
20260509152027 52 360 0.0 0.0 0.01 0.20 0.20 91 1010.1
20260509151527 52 355 0.0 0.0 0.02 0.20 0.20 91 1010.2
20260509151024 52 12 0.0 0.0 0.02 0.20 0.20 91 1010.2
20260509150524 52 12 0.0 0.0 0.02 0.20 0.20 91 1010.3
20260509150023 52 12 0.0 0.0 0.02 0.20 0.20 91 1010.3
20260509145523 52 34 0.0 0.0 0.02 0.20 0.20 91 1010.4
20260509145021 52 34 0.0 0.0 0.02 0.20 0.20 91 1010.5
20260509144521 52 36 0.0 0.0 0.01 0.19 0.19 90 1010.6
20260509144019 52 36 0.0 0.0 0.01 0.19 0.19 91 1010.6
20260509143518 51 37 0.0 0.0 0.02 0.19 0.19 91 1010.7
20260509143021 51 37 0.0 0.0 0.02 0.19 0.19 91 1010.7
20260509142517 51 37 0.0 0.0 0.02 0.19 0.19 90 1010.7
20260509142017 51 37 0.0 0.0 0.02 0.19 0.19 90 1010.7
20260509141517 51 37 0.0 0.0 0.01 0.18 0.18 90 1010.7
20260509141015 51 37 0.0 0.0 0.01 0.18 0.18 90 1010.7
20260509140516 51 36 0.0 0.0 0.01 0.18 0.18 90 1010.7
20260509140013 51 37 0.0 0.0 0.01 0.18 0.18 90 1010.7
20260509135514 51 37 0.0 0.0 0.02 0.18 0.18 90 1010.7
20260509135015 51 36 0.0 0.0 0.02 0.18 0.18 90 1010.6
20260509134512 51 11 0.0 0.0 0.02 0.18 0.18 90 1010.7
20260509134010 50 11 0.0 0.0 0.02 0.17 0.17 90 1010.7
20260509133510 50 11 0.0 0.0 0.02 0.17 0.17 90 1010.7
20260509133009 50 11 0.0 0.0 0.03 0.17 0.17 90 1010.7
20260509132509 50 10 0.0 0.0 0.03 0.17 0.17 90 1010.9
20260509132008 50 107 0.0 0.0 0.03 0.17 0.17 90 1010.8
20260509131510 50 107 0.0 0.0 0.04 0.17 0.17 90 1010.8
20260509131004 50 108 0.0 0.0 0.04 0.17 0.17 89 1010.9
20260509130503 50 108 0.0 0.0 0.05 0.17 0.17 89 1010.9
20260509130002 50 108 0.0 0.0 0.05 0.17 0.17 89 1011.0
20260509125505 49 108 0.0 0.0 0.05 0.16 0.16 89 1011.0
20260509125001 49 108 0.0 0.0 0.06 0.16 0.16 89 1011.0
20260509124619 49 108 0.0 0.0 0.06 0.16 0.16 89 1011.1
20260509124100 49 108 0.0 0.0 0.05 0.15 0.15 89 1011.1
20260509123600 49 108 0.0 0.0 0.05 0.15 0.15 89 1011.1
20260509123059 49 108 0.0 0.0 0.05 0.14 0.14 89 1011.3
20260509122559 49 108 0.0 0.0 0.06 0.14 0.14 89 1011.2
20260509122058 49 108 0.0 0.0 0.06 0.14 0.14 89 1011.2
20260509121609 49 108 0.0 0.0 0.05 0.13 0.13 89 1011.2
20260509121054 49 108 0.0 0.0 0.05 0.13 0.13 89 1011.2
20260509120555 49 108 0.0 0.0 0.05 0.12 0.12 89 1011.3
20260509120052 48 108 0.0 0.0 0.05 0.12 0.12 89 1011.3
20260509115551 48 108 0.0 0.0 0.04 0.11 0.11 88 1011.4
20260509115052 48 108 0.0 0.0 0.03 0.10 0.10 88 1011.4
20260509114552 48 108 0.0 0.0 0.04 0.10 0.10 88 1011.3
20260509114049 48 108 0.0 0.0 0.04 0.10 0.10 88 1011.3
20260509113546 48 108 0.0 0.0 0.04 0.09 0.09 88 1011.3
20260509113051 48 107 0.0 0.0 0.04 0.09 0.09 88 1011.3
20260509112548 48 107 0.0 0.0 0.04 0.08 0.08 88 1011.3
20260509112043 48 107 0.0 0.0 0.05 0.08 0.08 88 1011.3
20260509111543 48 107 0.0 0.0 0.06 0.08 0.08 88 1011.4
20260509111043 47 107 0.0 0.0 0.07 0.08 0.08 88 1011.4
20260509110546 47 107 0.0 0.0 0.06 0.07 0.07 88 1011.3
20260509110041 47 107 0.0 0.0 0.06 0.07 0.07 88 1011.2
20260509105544 47 107 0.0 0.0 0.06 0.07 0.07 88 1011.2
20260509105041 47 107 0.0 0.0 0.06 0.07 0.07 88 1011.1
20260509104542 47 107 0.0 0.0 0.05 0.06 0.06 88 1011.1
20260509104039 47 107 0.0 0.0 0.05 0.06 0.06 87 1011.1
20260509103538 47 107 0.0 0.0 0.04 0.05 0.05 87 1011.2
20260509103038 47 107 0.0 0.0 0.04 0.05 0.05 87 1011.3
20260509102539 46 107 0.0 0.0 0.03 0.04 0.04 87 1011.2
20260509102039 46 107 0.0 0.0 0.02 0.03 0.03 87 1011.3
20260509101538 46 107 0.0 0.0 0.01 0.02 0.02 87 1011.3
20260509101036 46 107 0.0 0.0 0.00 0.01 0.01 87 1011.4
20260509100536 46 107 0.0 0.0 0.00 0.01 0.01 87 1011.3
20260509100036 46 107 0.0 0.0 0.00 0.01 0.01 87 1011.1
20260509095536 46 107 0.0 0.0 0.00 0.01 0.01 87 1011.2
20260509095036 46 107 0.0 0.0 0.00 0.01 0.01 86 1011.2
20260509094535 46 107 0.0 0.0 0.00 0.01 0.01 86 1011.2
20260509094035 46 107 0.0 0.0 0.00 0.01 0.01 86 1011.2
20260509093535 46 107 0.0 0.0 0.00 0.01 0.01 86 1011.1
20260509093034 46 107 0.0 0.0 0.00 0.01 0.01 86 1011.2
20260509092534 46 107 0.0 0.0 0.00 0.01 0.01 86 1011.3
20260509092038 46 107 0.0 0.0 0.00 0.01 0.01 86 1011.3
20260509091534 46 107 0.0 0.0 0.00 0.01 0.01 86 1011.2
20260509091033 46 107 0.0 0.0 0.00 0.01 0.01 86 1011.2
20260509090533 46 107 0.0 0.0 0.00 0.01 0.01 86 1011.3
20260509090033 46 107 0.0 0.0 0.00 0.01 0.01 86 1011.3
20260509085531 46 107 0.0 0.0 0.00 0.01 0.01 86 1011.3
20260509085031 46 107 0.0 0.0 0.00 0.01 0.01 86 1011.3
20260509084537 46 107 0.0 0.0 0.00 0.01 0.01 85 1011.3
20260509084031 46 107 0.0 0.0 0.00 0.01 0.01 85 1011.4
20260509083533 46 107 0.0 0.0 0.00 0.01 0.01 85 1011.4
20260509083043 46 107 0.0 0.0 0.00 0.01 0.01 85 1011.4
20260509082529 46 107 0.0 0.0 0.00 0.01 0.01 85 1011.5
20260509082028 46 107 0.0 0.0 0.00 0.01 0.01 85 1011.6
20260509081528 46 9 0.0 0.0 0.00 0.01 0.01 84 1011.7
20260509081029 46 9 0.0 0.0 0.00 0.01 0.01 84 1011.7
20260509080526 46 5 0.0 0.0 0.00 0.01 0.01 84 1011.7
20260509080028 46 122 0.0 0.0 0.00 0.01 0.01 83 1011.8
20260509075530 46 122 0.0 0.0 0.00 0.01 0.01 83 1011.9
20260509075026 46 122 0.0 0.0 0.00 0.01 0.01 83 1012.0
20260509074526 46 122 0.0 0.0 0.00 0.01 0.01 82 1012.0
20260509074025 46 122 0.0 0.0 0.00 0.01 0.01 82 1012.0
20260509073525 46 122 0.0 0.0 0.00 0.01 0.01 82 1012.0
20260509073025 46 122 0.0 0.0 0.00 0.01 0.01 81 1011.9
20260509072526 46 122 0.0 0.0 0.00 0.01 0.01 81 1011.9
20260509072024 46 122 0.0 0.0 0.00 0.01 0.01 81 1011.8
20260509071524 46 122 0.0 0.0 0.01 0.01 0.01 81 1011.8
20260509071023 46 122 0.0 0.0 0.01 0.01 0.01 81 1011.7
20260509070522 46 122 0.0 0.0 0.01 0.01 0.01 80 1011.7
20260509070022 46 122 0.0 0.0 0.01 0.01 0.01 79 1011.8
20260509065521 46 122 0.0 0.0 0.01 0.01 0.01 79 1011.8
20260509065021 46 122 0.0 0.0 0.01 0.01 0.01 79 1011.9
20260509064520 46 122 0.0 0.0 0.01 0.01 0.01 79 1011.9
20260509064023 46 122 0.0 0.0 0.01 0.01 0.01 79 1012.0
20260509063524 46 122 0.0 0.0 0.01 0.01 0.01 78 1012.0
20260509063018 46 122 0.0 0.0 0.01 0.01 0.01 78 1012.0
20260509062523 46 122 0.0 0.0 0.01 0.01 0.01 77 1012.1
20260509062023 46 122 0.0 0.0 0.01 0.01 0.01 77 1012.3
20260509061521 46 122 0.0 0.0 0.00 0.00 0.00 77 1012.3
20260509061016 46 122 0.0 0.0 0.00 0.00 0.00 77 1012.3
20260509060515 46 122 0.0 0.0 0.00 0.00 0.00 76 1012.4
20260509060015 46 122 0.0 0.0 0.00 0.00 0.00 76 1012.5
20260509055516 46 122 0.0 0.0 0.00 0.00 0.00 76 1012.5
20260509055014 46 122 0.0 0.0 0.00 0.00 0.00 75 1012.5
20260509054515 46 122 0.0 0.0 0.00 0.00 0.00 75 1012.5
20260509054014 46 122 0.0 0.0 0.00 0.00 0.00 75 1012.6
20260509053514 46 122 0.0 0.0 0.00 0.00 0.00 75 1012.5
20260509053014 46 122 0.0 0.0 0.00 0.00 0.00 75 1012.5
20260509052514 46 122 0.0 0.0 0.00 0.00 0.00 75 1012.6
20260509052013 46 122 0.0 0.0 0.00 0.00 0.00 74 1012.5
20260509051513 46 122 0.0 0.0 0.00 0.00 0.00 74 1012.6
20260509051115 46 122 0.0 0.0 0.00 0.00 0.00 74 1012.6
20260509050513 46 122 0.0 0.0 0.00 0.00 0.00 74 1012.4
20260509050013 46 122 0.0 0.0 0.00 0.00 0.00 74 1012.4
20260509045511 46 122 0.0 0.0 0.00 0.00 0.00 74 1012.4
20260509045011 46 122 0.0 0.0 0.00 0.00 0.00 73 1012.4
20260509044511 46 122 0.0 0.0 0.00 0.00 0.00 73 1012.5
20260509044013 46 122 0.0 0.0 0.00 0.00 0.00 74 1012.4
20260509043510 46 122 0.0 0.0 0.00 0.00 0.00 73 1012.6
20260509043010 46 122 0.0 0.0 0.00 0.00 0.00 72 1012.6
20260509042508 46 122 0.0 0.0 0.00 0.00 0.00 71 1012.7
20260509042009 46 122 0.0 0.0 0.00 0.00 0.00 71 1012.8
20260509041508 46 122 0.0 0.0 0.00 0.00 0.00 71 1012.8